[[{"header":{"parameterUnit":"m.s-1","parameterCategory":1,"la1":30.2991,"la2":30.254,"lo1":-89.0895,"lo2":-89.0444,"dy":0.0017,"dx":0.0017,"nx":28,"ny":28,"refTime":"2023-10-30T21:00:00:Z","depth":0,"parameterNumber":2,"parameterNumberName":"U-component_of_WINDS"},"data":[0,0,0,0,0,0,0,0,0,0,0,0,0,0,0,0,0,0,0,0,0,0,0,0,0,0,0,0,0,0,0,0,0,0,0,0,0,0,0,0,0,0,0,0,0,0,0,0,0,0,0,0,0,0,0,0,0,0,1.6304,1.6305,0,1.6391,1.6392,1.6393,1.6463,1.6464,1.6465,1.6465,1.6553,1.6555,1.6556,0,0,0,0,0,0,0,0,0,0,0,0,0,1.6197,1.6199,1.6304,1.6305,1.6306,1.6391,1.6392,1.6393,1.6463,1.6464,1.6465,1.6466,1.6553,1.6555,1.6557,0,0,0,0,0,0,0,0,0,0,0,0,0,1.626,1.62,1.6304,1.6351,1.6356,1.6391,1.6392,1.6394,1.6463,1.6464,1.6465,1.6466,1.6552,1.6554,1.6557,1.6551,0,0,1.6565,1.6566,0,0,0,0,0,0,0,0,1.6256,1.6264,1.6343,1.6348,1.6354,1.6417,1.6387,1.6446,1.6463,1.6422,1.6465,1.6467,1.6507,1.6513,1.6527,1.6555,1.6559,1.6565,1.6566,1.6567,1.6568,0,0,0,0,0,0,0,1.6252,1.626,1.6338,1.6344,1.6351,1.6368,1.6378,1.6398,1.6458,1.6426,1.6431,1.6441,1.651,1.6525,1.653,1.656,1.6565,1.6567,1.6568,1.6569,1.6587,1.6586,0,0,0,0,0,0,1.624,1.6256,1.6336,1.6341,1.6307,1.6369,1.638,1.6396,1.6458,1.6468,1.644,1.6444,1.652,1.6527,1.6533,1.653,1.6567,1.657,1.6571,1.6588,1.6587,1.6586,0,0,0,0,0,0,1.6238,1.6247,1.6332,1.63,1.6312,1.637,1.6387,1.6397,1.6412,1.6468,1.6479,1.6444,1.6521,1.653,1.6546,1.6534,1.6571,1.6573,1.6589,1.6588,1.6586,1.6523,0,0,0,0,0,0,1.6234,1.6245,1.6244,1.63,1.6314,1.6343,1.6386,1.6398,1.6416,1.6422,1.6475,1.6484,1.6523,1.6542,1.6549,1.6538,1.6575,1.6591,1.6589,1.6587,1.6526,1.6519,1.6513,0,0,0,0,0,1.623,1.6222,1.6243,1.6252,1.6313,1.6342,1.6351,1.6395,1.6415,1.6413,1.645,1.6483,1.6535,1.6543,1.6551,1.6541,1.6592,1.6589,1.6587,1.6529,1.6521,1.6513,0,0,0,0,0,0,1.6162,1.623,1.6254,1.6264,1.6297,1.6354,1.6354,1.6385,1.6413,1.6417,1.6471,1.6482,1.6492,1.6519,1.6527,1.6539,1.6567,1.6567,1.6521,1.6513,1.6507,1.6499,1.6577,0,0,0,0,0,1.6148,1.6167,1.6225,1.6228,1.6243,1.6296,1.631,1.6342,1.6378,1.6392,1.643,1.6463,1.6488,1.6502,1.6527,1.6531,1.6543,1.6528,1.6522,1.6516,1.6514,1.6518,1.6512,1.6578,1.6578,1.6578,0,0,1.612,1.6159,1.6167,1.6215,1.6245,1.6262,1.6307,1.6324,1.6337,1.6395,1.6412,1.6441,1.6483,1.6492,1.6499,1.6515,1.6499,1.6513,1.6508,1.651,1.6515,1.6509,1.6503,1.6577,1.6577,1.6577,0,0,1.6076,1.6108,1.6114,1.6143,1.6187,1.6222,1.6223,1.6276,1.6298,1.6317,1.636,1.6377,1.6418,1.6445,1.6464,1.6433,1.6464,1.644,1.6405,1.6408,1.6403,1.6398,1.6386,1.6381,1.6438,1.6438,1.6438,0,1.6034,1.6063,1.6113,1.6127,1.6147,1.6201,1.6207,1.6232,1.6282,1.6294,1.6312,1.6364,1.6395,1.6412,1.6405,1.6419,1.6422,1.6433,1.64,1.6396,1.6392,1.6381,1.6377,1.6434,1.6435,1.6435,1.6435,0,1.601,1.6029,1.6028,1.6075,1.6096,1.6105,1.6156,1.6171,1.6201,1.6234,1.6253,1.6293,1.6327,1.6334,1.6363,1.6355,1.6363,1.639,1.6419,1.6382,1.6372,1.6368,1.643,1.6431,1.6432,1.6433,0,0,1.5923,1.5999,1.5998,1.602,1.6074,1.6089,1.6102,1.6136,1.6147,1.618,1.6192,1.6226,1.625,1.6272,1.6306,1.6308,1.628,1.6335,1.6336,1.6322,1.6272,1.6251,1.6245,1.6302,1.6301,1.6301,1.6268,0,1.5887,1.5913,1.5958,1.597,1.5988,1.604,1.6052,1.6085,1.6117,1.6137,1.6173,1.6195,1.6227,1.624,1.6245,1.6282,1.627,1.6285,1.6312,1.6312,1.6298,1.6241,1.6218,1.6185,1.6265,1.6265,1.6264,0,1.5848,1.5878,1.5891,1.5944,1.5953,1.5963,1.5998,1.6017,1.6056,1.608,1.6104,1.6141,1.6158,1.6186,1.6209,1.6218,1.6232,1.6252,1.6252,1.6254,1.6284,1.624,1.6176,1.617,1.6259,1.6259,1.626,0,1.5782,1.5827,1.584,1.5858,1.592,1.5925,1.5951,1.5992,1.601,1.6041,1.6053,1.6085,1.6102,1.6127,1.6171,1.6188,1.6189,1.6221,1.6207,1.6206,1.6203,1.6203,1.6139,1.6215,1.6215,1.6215,1.6215,0,1.5736,1.5741,1.5811,1.5819,1.5827,1.588,1.5886,1.5917,1.5954,1.5969,1.6017,1.6029,1.6089,1.6108,1.6144,1.6157,1.6165,1.6183,1.6192,1.6178,1.6175,1.6186,1.6189,1.6214,1.6214,1.6214,1.6215,0,1.5662,1.571,1.5728,1.5786,1.5801,1.5804,1.5853,1.5863,1.5899,1.5917,1.5924,1.5979,1.6005,1.6053,1.6092,1.6116,1.6121,1.6138,1.6107,1.6112,1.6095,1.6096,1.6035,1.603,1.611,1.6109,1.6109,0,1.5629,1.5634,1.5693,1.5707,1.5731,1.5753,1.5771,1.5824,1.5842,1.5888,1.5892,1.5922,1.5948,1.5987,1.6031,1.6061,1.6078,1.6055,1.6082,1.6068,1.6076,1.6074,1.6075,1.6047,1.6046,1.6045,1.6045,0,1.5563,1.5587,1.5612,1.5646,1.5667,1.5696,1.5727,1.5736,1.5796,1.5813,1.584,1.5861,1.5902,1.593,1.5967,1.5994,1.6029,1.6036,1.6034,1.6019,1.6,1.6009,1.6088,1.6037,1.6037,1.6038,1.6038,1.6039,1.5508,1.5515,1.5558,1.5585,1.5614,1.5643,1.5655,1.5692,1.5716,1.5753,1.5784,1.5808,1.5849,1.5902,1.5927,1.5947,1.5964,1.5961,1.596,1.5958,1.5952,1.5999,1.5954,1.5955,1.5955,1.5955,1.5956,0,1.5444,1.5475,1.5499,1.5541,1.5562,1.5595,1.5632,1.5647,1.5668,1.5704,1.5729,1.5761,1.5789,1.5835,1.5868,1.5875,1.5892,1.5881,1.588,1.5886,1.5936,1.5934,1.5867,1.5867,1.5867,1.5867,1.5867,1.5867,1.5413,1.5427,1.5456,1.5485,1.5516,1.5541,1.5559,1.5585,1.5614,1.5647,1.5671,1.5702,1.5741,1.5777,1.5805,1.5818,1.5827,1.5811,1.5828,1.5874,1.5882,1.589,1.5888,1.5813,1.5813,1.5776,1.5776,1.5776]},{"header":{"parameterUnit":"m.s-1","parameterCategory":1,"la1":30.2991,"la2":30.254,"lo1":-89.0895,"lo2":-89.0444,"dy":0.0017,"dx":0.0017,"nx":28,"ny":28,"refTime":"2023-10-30T21:00:00:Z","depth":0,"parameterNumber":3,"parameterNumberName":"V-component_of_WINDS"},"data":[0,0,0,0,0,0,0,0,0,0,0,0,0,0,0,0,0,0,0,0,0,0,0,0,0,0,0,0,0,0,0,0,0,0,0,0,0,0,0,0,0,0,0,0,0,0,0,0,0,0,0,0,0,0,0,0,0,0,-3.6757,-3.6755,0,-3.6572,-3.657,-3.6568,-3.6563,-3.6565,-3.6568,-3.657,-3.6367,-3.636,-3.6352,0,0,0,0,0,0,0,0,0,0,0,0,0,-3.7098,-3.7092,-3.6757,-3.6755,-3.6753,-3.6573,-3.657,-3.6567,-3.6563,-3.6565,-3.6568,-3.6571,-3.637,-3.6361,-3.6352,0,0,0,0,0,0,0,0,0,0,0,0,0,-3.6935,-3.709,-3.6758,-3.6729,-3.6725,-3.6573,-3.657,-3.6567,-3.6562,-3.6566,-3.6569,-3.6572,-3.6373,-3.6362,-3.635,-3.6211,0,0,-3.6316,-3.6311,0,0,0,0,0,0,0,0,-3.6944,-3.6922,-3.6736,-3.6731,-3.6726,-3.6595,-3.6616,-3.6447,-3.6561,-3.6623,-3.657,-3.6574,-3.6439,-3.6423,-3.638,-3.6202,-3.6193,-3.6315,-3.6308,-3.6303,-3.63,0,0,0,0,0,0,0,-3.6955,-3.693,-3.6684,-3.6733,-3.6727,-3.6722,-3.6703,-3.6584,-3.6513,-3.6618,-3.6617,-3.6596,-3.6437,-3.6391,-3.6375,-3.619,-3.6315,-3.6305,-3.6298,-3.6294,-3.5892,-3.5888,0,0,0,0,0,0,-3.6974,-3.694,-3.669,-3.6678,-3.6846,-3.6714,-3.6692,-3.6633,-3.6515,-3.6501,-3.6594,-3.6597,-3.6408,-3.6388,-3.6368,-3.62,-3.6303,-3.6293,-3.6286,-3.5896,-3.5891,-3.5887,0,0,0,0,0,0,-3.6981,-3.6952,-3.6697,-3.6809,-3.6776,-3.6704,-3.6638,-3.6627,-3.6581,-3.6497,-3.6483,-3.656,-3.641,-3.6384,-3.6252,-3.6193,-3.6287,-3.6277,-3.5901,-3.5895,-3.5889,-3.5862,0,0,0,0,0,0,-3.6991,-3.6954,-3.6903,-3.6808,-3.677,-3.6587,-3.6634,-3.6621,-3.6563,-3.6566,-3.6461,-3.6447,-3.6411,-3.6269,-3.6241,-3.6179,-3.6268,-3.5905,-3.5898,-3.5891,-3.5868,-3.5856,-3.5846,0,0,0,0,0,-3.7003,-3.6898,-3.69,-3.687,-3.6705,-3.6584,-3.6562,-3.6526,-3.6559,-3.6505,-3.6451,-3.645,-3.6204,-3.6256,-3.6224,-3.6158,-3.5909,-3.59,-3.5892,-3.5873,-3.5859,-3.5846,0,0,0,0,0,0,-3.6982,-3.6885,-3.6886,-3.6748,-3.6675,-3.6583,-3.6514,-3.6511,-3.6424,-3.6429,-3.6384,-3.6361,-3.6231,-3.618,-3.624,-3.6019,-3.606,-3.6044,-3.6057,-3.6042,-3.6032,-3.6047,-3.6259,0,0,0,0,0,-3.6963,-3.6876,-3.6794,-3.668,-3.6644,-3.6586,-3.6532,-3.6511,-3.6432,-3.6399,-3.6336,-3.6255,-3.6161,-3.6098,-3.6005,-3.5861,-3.5839,-3.58,-3.5789,-3.578,-3.5767,-3.569,-3.5673,-3.5858,-3.5859,-3.5859,0,0,-3.6919,-3.6855,-3.6802,-3.6675,-3.6616,-3.6525,-3.6559,-3.646,-3.6393,-3.6383,-3.6257,-3.6208,-3.6115,-3.5978,-3.5913,-3.5931,-3.5712,-3.5769,-3.5763,-3.5755,-3.568,-3.5662,-3.5647,-3.5853,-3.5854,-3.5855,0,0,-3.6794,-3.6737,-3.6638,-3.658,-3.6493,-3.6455,-3.6432,-3.6341,-3.631,-3.6184,-3.6176,-3.6093,-3.5929,-3.5865,-3.5811,-3.5667,-3.5664,-3.5638,-3.558,-3.5506,-3.5491,-3.5478,-3.5429,-3.5412,-3.5625,-3.5625,-3.5625,0,-3.675,-3.6617,-3.6586,-3.649,-3.6435,-3.6428,-3.6327,-3.627,-3.6154,-3.6115,-3.6139,-3.5937,-3.5873,-3.5723,-3.5689,-3.5644,-3.5616,-3.5649,-3.5497,-3.5483,-3.547,-3.5423,-3.5405,-3.5623,-3.5623,-3.5623,-3.5623,0,-3.6568,-3.6476,-3.6406,-3.6302,-3.6239,-3.614,-3.6093,-3.6031,-3.6017,-3.5977,-3.585,-3.5775,-3.5669,-3.5631,-3.5613,-3.5478,-3.5493,-3.5507,-3.5547,-3.5451,-3.5406,-3.5388,-3.5619,-3.562,-3.5621,-3.5621,0,0,-3.6422,-3.6308,-3.6282,-3.6237,-3.6142,-3.6069,-3.597,-3.5872,-3.5822,-3.5742,-3.5659,-3.5523,-3.5537,-3.5476,-3.5451,-3.5386,-3.5281,-3.5407,-3.5405,-3.5389,-3.513,-3.5123,-3.5102,-3.5278,-3.5275,-3.5272,-3.5139,0,-3.6289,-3.6119,-3.6091,-3.5941,-3.5856,-3.5851,-3.5765,-3.5696,-3.5657,-3.5577,-3.5531,-3.5437,-3.5461,-3.5425,-3.536,-3.5308,-3.5229,-3.5316,-3.5199,-3.5195,-3.5225,-3.5078,-3.5068,-3.4947,-3.5121,-3.5118,-3.5116,0,-3.611,-3.6035,-3.5878,-3.58,-3.5763,-3.5687,-3.5598,-3.5522,-3.5444,-3.542,-3.5355,-3.5339,-3.5235,-3.5281,-3.5137,-3.5198,-3.5147,-3.5115,-3.5109,-3.5097,-3.5151,-3.5064,-3.4907,-3.4889,-3.5087,-3.509,-3.5092,0,-3.6024,-3.5881,-3.5771,-3.5732,-3.5636,-3.5584,-3.554,-3.5467,-3.5411,-3.5331,-3.5295,-3.5201,-3.515,-3.5078,-3.5037,-3.5074,-3.4897,-3.4938,-3.4873,-3.4874,-3.4836,-3.484,-3.4671,-3.4801,-3.4802,-3.4802,-3.4802,0,-3.5879,-3.5784,-3.5732,-3.5663,-3.5557,-3.5525,-3.5419,-3.5376,-3.5312,-3.5234,-3.522,-3.5147,-3.5097,-3.5016,-3.4982,-3.487,-3.4846,-3.4823,-3.4815,-3.4825,-3.4828,-3.4792,-3.48,-3.4797,-3.4798,-3.4799,-3.48,0,-3.5764,-3.5725,-3.5605,-3.5527,-3.5505,-3.543,-3.5362,-3.5295,-3.5257,-3.5159,-3.5134,-3.5073,-3.4978,-3.4931,-3.4808,-3.4787,-3.4661,-3.4657,-3.4689,-3.4686,-3.4625,-3.4632,-3.4428,-3.44,-3.4548,-3.4547,-3.4545,0,-3.5675,-3.5603,-3.552,-3.547,-3.5428,-3.5345,-3.5291,-3.5256,-3.5199,-3.5108,-3.5052,-3.4957,-3.488,-3.4727,-3.467,-3.4578,-3.4573,-3.4508,-3.4558,-3.4572,-3.4575,-3.4581,-3.4574,-3.4499,-3.4497,-3.4496,-3.4495,0,-3.5522,-3.5509,-3.5433,-3.5351,-3.5288,-3.5221,-3.5154,-3.5112,-3.5067,-3.5003,-3.4909,-3.4849,-3.473,-3.4636,-3.4541,-3.4493,-3.4486,-3.448,-3.4461,-3.4471,-3.4493,-3.4483,-3.4666,-3.4485,-3.4486,-3.4487,-3.4487,-3.4488,-3.5419,-3.5357,-3.5291,-3.5207,-3.5155,-3.5095,-3.503,-3.4987,-3.4909,-3.4813,-3.4796,-3.4696,-3.4622,-3.4496,-3.4445,-3.4365,-3.4379,-3.4349,-3.4342,-3.4336,-3.4335,-3.4506,-3.4346,-3.4347,-3.4347,-3.4347,-3.4347,0,-3.5268,-3.5227,-3.5151,-3.5063,-3.4998,-3.5003,-3.493,-3.4874,-3.4789,-3.4723,-3.4649,-3.4542,-3.4452,-3.439,-3.4298,-3.4246,-3.424,-3.4223,-3.4227,-3.4217,-3.4326,-3.4354,-3.4229,-3.4229,-3.4229,-3.4229,-3.4229,-3.4229,-3.5182,-3.5079,-3.5058,-3.4928,-3.4886,-3.4793,-3.4751,-3.4695,-3.4644,-3.4527,-3.4454,-3.4416,-3.4352,-3.4256,-3.4174,-3.4158,-3.4125,-3.4108,-3.4092,-3.4196,-3.4208,-3.422,-3.4246,-3.41,-3.41,-3.3989,-3.3988,-3.3987]}]]